Location: Falconara Alta
(43.6167°N, 13.4000°E)
Time: 01:27:32
(UTC+00:00)

Cosmos 2058 - Pass Details

Date: 09 April 2020
Orbit: 563 x 582 km, 82.5° (Epoch: 29 May)

Event Time Altitude Azimuth Distance (km) Brightness Sun altitude
Rises 19:14:42 0° 1° (N) 2,774 6.8 -16.3°
Reaches altitude 10° 19:17:04 10° 12° (NNE) 1,874 5.7 -16.7°
Maximum altitude 19:20:46 31° 75° (ENE) 1,009 3.8 -17.3°
Enters shadow 19:21:05 31° 84° (E) 1,017 3.7 -17.3°
